STARLINK-5166, 54085

Orbit data source: Space-Track

STARLINK-5166, 54085 is a payload satellite owned by SpaceX/Seattle (US) in LEO that was launched on Thu, 20 Oct 2022 UTC via an FALCON 9 launch vehicle from the Air Force Eastern Test Range (AFETR). Payload-class satellites include a variety of spacecraft equipped with specific instruments for various scientific and technological missions. These include communications satellites like Starlink; space stations such as the ISS; scientific satellites like the Hubble; Earth observation satellites from companies like Planet Labs, Umbra, and HawkEye 360; GPS; miniature CubeSats for education and research; and military/defense satellites.

Loading next visibility...
Identifier
54085, 2022-136AL
Orbit
LEO
Country
Flag of USUS
Related business
Manufacturer
SpaceX/Seattle
Mission
Operational Commercial Communications
Bus & Motor
STARLINK, Unknown motor
Mass
305 kg wet, ~290 kg dry
Launch date (UTC)
2022-10-20 (3 years ago)
Launch vehicle
FALCON 9
Launch site
Air Force Eastern Test Range (AFETR)
Object type
Payload
Rocket body
Debris
Shape & HBR
Box + 1 Pan, 4.4 m
Radar Cross Section
13.562 m², Large (>1 m²)

Expand to show TLE details & history
Last TLE update: 20 hours ago

TLE from 20 hours ago
0 STARLINK-5166
1 54085U 22136AL  25260.67129924 -.00000905  00000-0 -38803-4 0  9993
2 54085  53.2189  30.8697 0001280  88.4341 271.6797 15.08828740160867
Epoch: 2025-09-17T16:06Z
TLE epoch observation values (Epoch: 2025-09-17T16:06:40.254Z)
Latitude
-0.00008°
Longitude
152.35801°
Altitude
540.65 km
Speed
7.593 km/s
True Right ascension
02h 03m 28s
True Declination
0° 00' 00"
Sunlit
Object was in full shadow at epoch
Visualization orbit readout
Latitude
Unknown
Longitude
Unknown
Altitude
Unknown
Speed
Unknown
Apparent Right ascension
Unknown
Apparent Declination
Unknown
Sunlit
N/A
Visualization observer readout
Local Sidereal Time
05:02:38
Azimuth
Unknown
Elevation
Unknown
Doppler factor
Unknown
Orbital elements
Apogee altitude
540.908 km
Perigee altitude
539.137 km
Semi-major axis
6,918.16 km
Eccentricity
0.00013
Inclination
53.2189°
RAAN
30.8697°
Arg. of periapsis
88.4341°
True anomaly
271.66504°
Mean anomaly
271.6797°
Eccentric anomaly
271.67237°
Mean motion
3.77188 °/min
Orbital period
95.44 mins
BSTAR
-0.000038803
Loading maneuver chart data...
Computing Atmospheric mass density...
Loading historical data...
Loading historical data...
Loading historical data...
Loading historical data...
Loading historical data...
Loading historical data...
Loading historical data...

Documentation

Showing up to 5 results
|